Date,TemperatureHighF,TemperatureAvgF,TemperatureLowF,DewpointHighF,DewpointAvgF,DewpointLowF,HumidityHigh,HumidityAvg,HumidityLow,PressureMaxIn,PressureMinIn,WindSpeedMaxMPH,WindSpeedAvgMPH,GustSpeedMaxMPH,PrecipitationSumIn
2013-1-1,42,42,42,36,36,36,80,80,80,30.31,30.31,4,4,13,0.00
2013-1-2,42,42,42,36,36,36,80,80,80,30.31,30.31,4,4,13,0.00
2013-1-3,42,42,42,36,36,36,80,80,80,30.31,30.31,4,4,13,0.00
2013-1-4,42,42,42,36,36,36,80,80,80,30.31,30.31,4,4,13,0.00
2013-1-5,42,42,42,36,36,36,80,80,80,30.31,30.31,4,4,13,0.00
2013-1-6,42,42,42,36,36,36,80,80,80,30.31,30.31,4,4,13,0.00
2013-1-7,42,42,42,36,36,36,80,80,80,30.31,30.31,4,4,13,0.00
2013-1-8,42,42,42,36,36,36,80,80,80,30.31,30.31,4,4,13,0.00
2013-1-9,62,53,35,51,44,32,93,71,51,30.52,30.31,23,5,23,0.00
2013-1-10,60,53,41,42,32,27,69,46,33,30.70,30.52,17,2,17,0.00
2013-1-11,47,45,43,45,39,32,96,80,57,30.60,30.22,13,2,13,0.03
2013-1-12,57,48,43,51,46,42,98,94,81,30.31,30.23,8,1,8,0.00
2013-1-13,70,58,48,62,56,47,99,92,76,30.26,30.09,15,2,16,0.01
2013-1-14,67,58,44,63,55,42,97,90,81,30.41,30.08,21,6,21,0.15
2013-1-15,44,41,40,42,40,39,97,96,94,30.46,30.27,14,3,17,0.94
2013-1-16,47,42,38,45,41,38,97,95,90,30.28,30.02,16,2,16,0.33
2013-1-17,46,42,36,46,41,35,98,97,95,30.27,30.10,18,2,18,0.57
2013-1-18,45,39,32,36,28,17,98,68,34,30.63,30.25,15,3,15,0.09
2013-1-19,53,43,31,35,31,27,90,64,47,30.58,30.15,23,6,23,0.00
2013-1-20,61,50,39,35,26,11,72,43,20,30.19,30.00,34,9,34,0.00
2013-1-21,56,45,36,25,16,6,53,32,22,30.20,29.90,36,6,36,0.00
2013-1-22,36,28,23,11,2,-4,41,32,23,30.44,30.07,23,8,24,0.00
2013-1-23,27,21,18,12,5,0,64,49,34,30.50,30.43,18,2,18,0.00
2013-1-24,30,26,21,24,13,4,90,63,32,30.69,30.20,11,4,29,0.00
2013-1-25,26,23,18,22,15,7,83,71,49,30.68,30.22,7,3,17,0.00
2013-1-26,40,31,24,28,25,22,90,77,59,30.56,30.21,3,0,12,0.00
2013-1-27,39,33,25,28,25,22,90,74,60,30.75,30.59,7,2,14,0.00
2013-1-28,55,43,35,46,37,27,92,80,68,30.62,30.24,12,6,24,0.23
2013-1-29,74,59,45,57,50,43,93,73,54,30.26,30.10,9,4,19,0.00
2013-1-30,71,64,59,65,61,55,97,90,74,30.09,29.34,41,8,41,1.34
2013-1-31,65,46,36,63,28,18,93,52,36,30.06,29.36,32,13,41,0.46
2013-2-1,37,31,25,31,11,2,86,44,30,30.54,29.92,36,9,36,0.01
2013-2-2,37,28,22,29,17,6,93,65,40,30.54,30.15,22,2,22,0.00
2013-2-3,44,35,29,32,27,16,93,74,44,30.15,29.96,28,4,28,0.10
2013-2-4,41,36,27,25,20,15,74,53,45,30.25,30.04,18,4,27,0.00
2013-2-5,57,49,34,36,33,24,70,54,42,30.05,29.96,28,6,28,0.03
2013-2-6,55,45,35,36,31,27,89,62,35,30.48,30.04,15,3,15,0.00
2013-2-7,42,39,35,33,29,27,80,68,56,30.56,30.30,12,2,12,0.00
2013-2-8,52,42,35,43,35,25,96,79,51,30.30,29.90,40,4,40,0.28
2013-2-9,50,42,31,26,17,10,65,39,21,30.51,30.11,30,6,34,0.00
2013-2-10,47,38,24,32,22,18,82,54,36,30.63,30.36,14,2,14,0.01
2013-2-11,62,50,38,54,43,20,97,79,22,30.37,29.90,35,8,35,0.05
2013-2-12,60,54,48,31,27,21,47,35,23,30.11,29.96,37,8,37,0.00
2013-2-13,52,43,37,39,34,26,96,73,40,30.05,29.77,13,2,13,0.02
2013-2-14,53,43,32,38,31,24,96,66,34,30.17,29.93,15,2,15,0.00
2013-2-15,61,47,33,42,34,29,92,64,34,30.18,29.99,24,4,24,0.03
2013-2-16,44,39,34,40,31,17,95,75,50,30.13,29.97,22,4,22,0.02
2013-2-17,34,30,27,19,9,4,63,42,30,30.38,30.01,30,9,30,0.00
2013-2-18,48,37,21,26,16,8,69,44,26,30.53,30.30,20,3,21,0.00
2013-2-19,50,44,40,44,33,20,91,66,37,30.30,29.88,27,9,27,0.11
2013-2-20,47,40,33,21,17,14,52,39,28,30.29,30.02,28,8,28,0.00
2013-2-21,47,38,29,22,19,16,64,47,32,30.45,30.26,20,3,21,0.00
2013-2-22,40,37,34,31,26,20,78,65,51,30.51,30.33,9,1,9,0.00
2013-2-23,54,43,36,45,38,31,94,84,70,30.33,29.94,8,1,8,0.00
2013-2-24,59,48,39,44,33,23,97,64,26,30.24,29.93,24,5,24,0.00
2013-2-25,46,39,32,25,22,20,67,52,39,30.37,30.23,18,2,18,0.00
2013-2-26,45,37,31,44,33,24,97,85,67,30.35,29.72,16,2,16,0.88
2013-2-27,56,49,40,45,39,34,97,71,45,29.83,29.69,30,5,30,0.01
2013-2-28,48,45,42,36,31,27,70,57,43,29.90,29.77,20,6,28,0.00
2013-3-1,45,42,39,32,29,26,72,60,52,30.04,29.89,19,4,19,0.00
2013-3-2,41,38,36,29,25,21,67,59,52,30.04,29.96,15,4,15,0.00
2013-3-3,47,38,32,23,20,16,64,50,36,30.09,29.93,23,6,23,0.00
2013-3-4,53,40,30,17,15,10,58,38,19,30.21,30.08,25,6,25,0.00
2013-3-5,50,43,35,37,27,14,95,55,32,30.20,29.86,16,3,16,0.14
2013-3-6,44,39,35,38,34,31,97,82,59,30.17,29.71,28,6,30,0.94
2013-3-7,48,44,40,33,30,28,67,58,47,30.34,30.16,26,5,26,0.00
2013-3-8,48,44,39,31,29,26,72,56,47,30.43,30.32,33,8,33,0.00
2013-3-9,61,48,40,31,28,18,68,47,22,30.49,30.37,13,1,13,0.00
2013-3-10,65,51,34,34,30,25,84,49,24,30.45,30.30,18,4,18,0.00
2013-3-11,64,54,43,53,42,27,77,63,36,30.35,30.01,18,3,18,0.01
2013-3-12,66,59,46,60,48,32,97,71,42,30.08,29.81,26,8,26,1.36
2013-3-13,52,45,37,32,26,18,77,49,33,30.24,30.03,30,8,30,0.00
2013-3-14,52,42,34,21,18,13,54,38,21,30.32,30.18,30,8,30,0.00
2013-3-15,62,50,37,37,27,18,52,40,34,30.26,29.92,21,6,21,0.00
2013-3-16,70,55,46,57,46,36,94,72,48,29.99,29.69,23,3,23,0.21
2013-3-17,47,40,36,41,38,34,94,90,82,30.41,29.99,15,3,15,0.09
2013-3-18,36,36,35,35,35,34,96,96,94,30.43,30.04,11,2,11,0.31
2013-3-19,65,48,35,45,26,2,98,58,11,30.11,29.85,44,9,44,0.06
2013-3-20,56,48,40,21,12,6,43,24,17,30.16,29.89,36,8,36,0.00
2013-3-21,44,38,33,32,17,10,82,45,30,30.08,29.89,29,9,29,0.00
2013-3-22,53,40,30,22,17,12,52,39,25,30.15,30.02,24,6,24,0.00
2013-3-23,58,45,31,28,23,18,74,44,25,30.20,30.01,15,2,15,0.00
2013-3-24,46,38,35,34,29,24,96,70,43,30.13,29.78,16,2,16,0.00
2013-3-25,42,38,35,38,35,29,97,90,64,29.86,29.67,14,1,14,0.48
2013-3-26,49,44,38,35,30,26,75,59,44,30.19,29.85,25,5,25,0.01
2013-3-27,51,45,38,32,28,24,69,52,36,30.31,30.19,33,9,33,0.00
2013-3-28,52,46,40,30,27,26,59,49,38,30.39,30.27,32,8,32,0.00
2013-3-29,59,49,38,37,30,25,80,50,27,30.43,30.26,18,2,18,0.00
2013-3-30,64,51,35,36,30,27,80,48,28,30.37,30.19,22,2,22,0.00
2013-3-31,57,50,45,52,44,32,96,80,46,30.21,29.88,13,2,14,0.03
2013-4-1,65,56,46,51,40,25,94,55,37,30.12,29.89,38,9,38,0.00
2013-4-2,55,47,39,26,17,8,55,32,15,30.31,30.12,29,6,29,0.00
2013-4-3,58,46,33,23,16,9,61,32,14,30.50,30.31,24,5,24,0.00
2013-4-4,49,40,33,37,23,12,95,54,27,30.57,30.18,18,2,18,0.22
2013-4-5,68,52,38,44,36,30,96,62,25,30.19,29.97,17,2,18,0.19
2013-4-6,60,52,42,32,25,15,56,36,20,30.43,30.15,20,5,20,0.00
2013-4-7,73,59,43,46,39,27,63,48,35,30.38,30.11,25,8,28,0.00
2013-4-8,81,69,53,54,48,44,74,49,31,30.20,30.04,22,6,24,0.00
2013-4-9,86,76,63,58,54,53,73,49,33,30.20,30.05,23,6,23,0.00
2013-4-10,91,80,66,61,57,54,70,46,30,30.09,29.89,25,8,25,0.00
2013-4-11,85,77,66,63,59,56,74,55,38,29.96,29.80,27,7,27,0.00
2013-4-12,83,72,64,67,58,40,95,64,22,29.82,29.63,35,8,35,0.74
2013-4-13,75,64,52,45,36,27,67,38,18,30.05,29.81,29,6,29,0.00
2013-4-14,76,67,55,46,37,29,51,34,26,30.19,30.05,20,5,20,0.00
2013-4-15,64,59,54,57,54,46,97,86,51,30.38,30.17,13,2,13,0.21
2013-4-16,74,64,56,62,59,55,96,83,64,30.42,30.25,18,3,18,0.00
2013-4-17,84,72,62,66,61,58,91,71,45,30.32,30.18,18,3,18,0.00
2013-4-18,80,69,62,66,61,57,96,76,48,30.29,30.08,24,5,24,0.06
2013-4-19,78,70,61,68,63,50,91,80,67,30.08,29.69,33,9,33,0.42
2013-4-20,64,57,49,49,32,26,65,40,24,30.42,29.84,23,7,23,0.00
2013-4-21,57,49,42,35,32,28,68,51,39,30.69,30.42,22,4,22,0.00
2013-4-22,59,50,38,42,36,31,87,62,42,30.68,30.46,21,5,21,0.00
2013-4-23,66,56,49,49,45,40,83,66,52,30.50,30.21,14,4,14,0.00
2013-4-24,78,64,48,60,53,45,94,70,42,30.24,29.92,33,7,33,0.08
2013-4-25,68,60,49,56,38,28,79,46,24,30.41,30.08,19,4,29,0.00
2013-4-26,69,58,44,44,38,30,82,48,31,30.58,30.41,14,3,14,0.00
2013-4-27,73,62,49,49,45,42,84,57,34,30.52,30.35,21,3,21,0.00
2013-4-28,61,57,54,54,49,44,89,75,60,30.38,30.23,11,3,17,0.04
2013-4-29,65,59,54,60,56,51,97,91,77,30.26,30.10,14,2,14,0.23
2013-4-30,66,60,57,60,56,55,96,89,73,30.38,30.17,15,5,19,0.03
2013-5-1,72,62,55,56,48,37,96,64,31,30.50,30.37,19,6,19,0.01
2013-5-2,70,60,50,51,48,44,85,65,48,30.52,30.40,19,4,19,0.00
2013-5-3,69,57,47,54,48,43,96,74,43,30.48,30.34,21,4,21,0.00
2013-5-4,65,55,46,52,47,42,92,74,57,30.42,30.25,20,4,20,0.00
2013-5-5,64,55,44,50,45,38,88,70,54,30.34,30.21,18,5,18,0.00
2013-5-6,62,56,52,61,54,50,97,93,73,30.25,30.07,19,6,19,0.31
2013-5-7,68,61,56,64,59,55,97,94,81,30.09,29.95,23,5,23,1.19
2013-5-8,64,59,54,59,57,53,98,93,78,30.11,30.05,15,2,15,0.35
2013-5-9,80,64,49,62,55,48,99,78,41,30.13,30.05,16,2,16,0.01
2013-5-10,85,72,56,63,59,55,96,69,38,30.13,29.95,35,4,35,0.02
2013-5-11,81,72,64,65,62,59,92,73,50,29.99,29.80,20,6,20,0.00
2013-5-12,69,63,54,59,41,29,71,46,24,30.16,29.85,26,7,26,0.00
2013-5-13,63,54,42,44,34,27,86,49,27,30.30,30.15,18,4,23,0.00
2013-5-14,71,57,39,46,39,34,91,54,29,30.36,30.12,16,3,16,0.00
2013-5-15,90,72,53,66,57,44,83,59,42,30.15,29.82,23,6,25,0.00
2013-5-16,88,77,66,70,60,52,94,58,39,30.04,29.89,48,5,48,0.40
2013-5-17,83,74,65,67,61,53,86,66,37,30.20,30.02,15,3,15,0.04
2013-5-18,69,64,62,64,62,61,98,94,77,30.30,30.19,17,2,17,0.22
2013-5-19,69,65,62,67,64,61,99,97,92,30.30,30.17,13,1,13,0.07
2013-5-20,83,72,66,72,68,65,99,87,63,30.21,30.06,14,3,14,0.01
2013-5-21,86,76,68,74,70,66,97,83,64,30.10,29.96,15,4,15,0.00
2013-5-22,88,78,70,73,70,64,95,78,59,30.04,29.91,25,5,25,0.00
2013-5-23,80,72,65,71,67,63,94,86,68,29.99,29.83,31,5,31,1.09
2013-5-24,66,62,53,63,49,35,96,66,38,30.28,29.86,37,8,37,0.00
2013-5-25,71,58,45,42,35,25,71,46,19,30.38,30.22,29,5,29,0.00
2013-5-26,76,63,48,50,41,29,81,48,19,30.37,30.22,18,2,18,0.00
2013-5-27,70,61,48,57,49,41,92,66,42,30.41,30.28,8,0,8,0.00
2013-5-28,87,71,55,71,62,54,95,76,50,30.31,30.15,35,4,35,0.10
2013-5-29,89,80,66,71,67,64,92,67,45,30.24,30.16,22,6,22,0.00
2013-5-30,90,80,67,71,66,61,90,65,40,30.28,30.20,19,4,19,0.00
2013-5-31,89,79,65,69,66,63,94,67,46,30.25,30.12,16,5,22,0.00
2013-6-1,90,80,68,71,67,64,91,66,49,30.14,30.01,22,6,22,0.00
2013-6-2,81,76,72,73,69,66,88,79,68,30.02,29.94,23,8,23,0.00
2013-6-3,83,75,69,72,67,63,97,79,54,30.05,29.90,15,2,16,0.41
2013-6-4,77,70,63,66,55,43,91,63,33,30.23,30.05,15,3,15,0.00
2013-6-5,78,71,62,64,60,53,84,68,56,30.26,30.13,17,3,17,0.00
2013-6-6,70,66,63,66,61,55,98,88,63,30.15,29.93,17,2,17,2.27
2013-6-7,71,68,66,70,67,65,98,96,91,29.93,29.70,15,2,17,0.50
2013-6-8,83,73,66,67,64,60,93,76,49,30.17,29.86,11,2,11,0.04
2013-6-9,81,72,65,74,68,63,97,90,74,30.28,30.15,21,2,21,1.34
2013-6-10,84,74,69,74,71,68,98,91,69,30.19,29.89,28,5,28,0.80
2013-6-11,84,76,67,68,66,63,97,73,50,29.98,29.91,24,6,29,0.00
2013-6-12,92,81,67,76,70,64,90,69,50,29.99,29.86,20,4,20,0.00
2013-6-13,89,78,70,75,69,58,95,77,51,29.89,29.61,31,5,31,0.12
2013-6-14,80,72,68,60,56,53,70,57,41,30.09,29.75,22,6,22,0.00
2013-6-15,84,74,61,64,59,54,88,62,39,30.19,30.07,14,2,14,0.00
2013-6-16,86,76,64,72,66,61,92,75,54,30.12,30.00,21,3,21,0.01
2013-6-17,88,75,66,71,68,64,95,81,54,30.07,29.96,46,3,46,0.94
2013-6-18,74,70,67,72,69,66,97,94,86,30.03,29.89,17,1,17,0.42
2013-6-19,76,70,64,68,66,63,98,88,72,30.24,29.99,13,2,13,0.01
2013-6-20,79,72,67,67,64,57,95,75,57,30.36,30.24,20,3,20,0.00
2013-6-21,82,73,62,64,59,51,88,63,45,30.39,30.30,16,2,20,0.00
2013-6-22,86,74,62,72,67,60,96,80,54,30.35,30.21,20,3,20,0.00
2013-6-23,86,78,70,75,71,64,96,80,54,30.28,30.17,15,2,15,0.00
2013-6-24,90,78,71,76,72,68,96,82,56,30.23,30.12,18,3,19,0.29
2013-6-25,92,81,69,76,72,68,97,76,51,30.15,29.99,13,3,13,0.00
2013-6-26,91,77,71,75,72,68,97,84,53,30.01,29.91,37,2,37,0.80
2013-6-27,84,76,68,74,71,68,98,86,68,29.95,29.74,18,4,18,0.00
2013-6-28,92,82,71,73,69,64,91,67,40,29.76,29.55,26,5,26,0.00
2013-6-29,88,78,66,72,66,62,92,67,47,29.77,29.62,16,3,16,0.00
2013-6-30,84,76,70,75,71,68,94,87,72,29.94,29.77,14,2,26,0.01
2013-7-1,84,76,72,75,72,70,96,88,68,30.06,29.92,16,3,16,0.12
2013-7-2,78,75,73,74,72,71,96,91,83,30.26,30.05,19,4,19,0.23
2013-7-3,86,76,72,76,74,71,98,91,68,30.32,30.24,16,3,19,1.44
2013-7-4,88,80,74,77,74,71,96,83,59,30.35,30.24,21,5,21,0.21
2013-7-5,88,80,73,78,74,71,95,82,64,30.33,30.22,14,5,20,0.06
2013-7-6,89,81,72,77,73,69,98,79,57,30.29,30.17,18,4,18,0.04
2013-7-7,88,79,72,75,73,68,97,82,61,30.21,30.09,21,6,21,0.02
2013-7-8,87,76,69,75,71,67,98,86,53,30.22,30.15,25,2,28,0.02
2013-7-9,88,79,71,77,73,70,97,84,58,30.20,30.10,11,1,11,0.02
2013-7-10,90,78,73,78,75,71,97,89,63,30.12,29.97,19,2,26,0.02
2013-7-11,83,76,73,76,73,72,97,90,71,30.01,29.94,13,3,13,0.02
2013-7-12,73,70,68,71,68,66,97,93,88,30.17,29.98,21,2,21,0.02
2013-7-13,82,73,68,74,69,67,97,88,73,30.28,30.16,13,2,13,0.01
2013-7-15,84,80,78,76,75,75,91,85,77,30.34,30.33,3,0,4,0.02
2013-7-16,92,84,76,80,76,72,95,76,60,30.35,30.25,14,2,14,0.02
2013-7-17,91,84,76,81,77,73,97,82,58,30.32,30.19,14,2,14,0.02
2013-7-18,94,85,75,80,77,74,98,79,58,30.23,30.11,12,2,12,0.01
2013-7-19,94,85,76,80,77,74,97,78,58,30.12,29.99,14,2,14,0.02
2013-7-20,93,83,75,78,74,69,89,76,59,30.03,29.93,24,4,24,0.01
2013-7-21,89,79,72,76,73,69,96,82,62,30.04,29.98,36,2,36,0.00
2013-7-22,87,85,83,78,76,75,81,74,69,29.99,29.90,13,2,13,0.01
2013-7-23,90,85,81,74,71,69,77,64,53,29.84,29.75,15,4,15,0.01
2013-7-24,85,80,76,74,72,70,87,76,61,29.90,29.87,17,5,17,0.01
2013-7-25,75,75,75,61,61,60,62,62,61,30.09,30.09,0,0,0,0.00
2013-8-1,84,75,69,73,70,68,96,86,67,30.01,29.91,28,2,34,0.03
2013-8-2,87,77,68,70,66,62,98,73,47,30.08,29.97,6,0,6,0.04
2013-8-3,83,73,66,72,67,64,95,83,57,30.08,30.01,11,0,11,0.01
2013-8-4,83,74,66,69,62,56,97,69,41,30.15,30.02,19,3,19,0.02
2013-8-5,80,71,60,66,61,56,92,72,47,30.22,30.11,13,2,13,0.01
2013-8-6,78,73,68,71,68,64,93,85,76,30.14,30.08,9,0,9,0.00
2013-8-7,84,77,72,74,72,69,94,84,69,30.17,30.09,7,0,7,0.01
2013-8-8,83,78,73,77,73,71,96,87,78,30.13,30.07,0,0,7,0.00
2013-8-9,92,83,75,78,75,73,96,79,56,30.08,29.97,0,0,0,0.00
2013-8-10,82,78,72,76,74,70,96,87,79,30.20,30.05,14,0,14,0.01
2013-8-11,82,75,70,75,72,70,97,90,78,30.22,30.11,8,0,8,0.04
2013-8-12,88,79,71,75,72,69,98,81,57,30.14,30.01,3,0,3,0.08
2013-8-13,86,77,72,76,73,70,97,87,62,30.01,29.84,4,0,4,0.07
2013-8-14,77,70,62,71,57,48,95,64,44,30.23,29.91,6,0,6,0.09
2013-8-15,76,66,56,63,56,53,95,74,47,30.30,30.20,0,0,0,0.02
2013-8-16,76,67,57,64,59,56,97,78,52,30.32,30.24,0,0,0,0.02
2013-8-17,75,67,60,66,62,59,96,83,63,30.36,30.30,13,1,13,0.01
2013-8-18,69,65,62,66,64,61,97,95,89,30.36,30.28,0,0,0,0.06
2013-8-19,77,69,63,71,67,62,98,92,80,30.31,30.18,0,0,0,0.07
2013-8-20,84,75,67,74,71,66,98,86,67,30.28,30.19,0,0,0,0.03
2013-8-21,87,77,70,76,72,68,98,85,65,30.31,30.18,15,0,15,0.02
2013-8-22,88,78,70,72,69,66,97,76,53,30.20,30.06,10,0,10,0.01
2013-8-23,75,70,64,72,68,63,97,94,88,30.23,30.04,19,1,19,0.02
2013-8-24,81,70,59,66,62,57,98,78,45,30.43,30.23,2,0,2,0.01
2013-8-25,81,70,61,67,63,60,97,79,51,30.51,30.38,0,0,0,0.01
2013-8-26,86,73,61,68,64,60,97,76,47,30.43,30.14,0,0,0,0.01
2013-8-27,90,78,66,77,70,65,95,78,55,30.15,30.00,0,0,0,0.01
2013-8-28,78,75,72,75,72,69,97,90,78,30.06,29.90,6,0,6,0.00
2013-8-29,83,77,72,74,72,70,97,87,70,30.12,29.91,0,0,0,0.01
2013-8-30,86,77,69,73,71,68,98,83,59,30.14,29.99,0,0,0,0.01
2013-8-31,89,76,71,76,71,68,96,86,63,30.03,29.89,19,0,31,0.00
2013-9-1,87,76,68,78,72,68,98,89,64,29.96,29.87,0,0,0,0.02
2013-9-2,90,81,72,76,72,69,96,77,51,29.93,29.83,0,0,0,0.02
2013-9-3,86,78,72,73,71,68,95,79,57,30.05,29.84,0,0,0,0.00
2013-9-4,82,72,62,68,64,60,94,75,53,30.20,30.05,0,0,0,0.01
2013-9-5,86,74,63,69,64,57,97,73,40,30.23,30.11,0,0,0,0.00
2013-9-6,77,68,61,63,57,53,88,70,46,30.35,30.23,0,0,0,0.00
2013-9-7,82,69,57,67,62,56,97,80,55,30.26,30.05,0,0,0,0.00
2013-9-8,88,76,65,72,67,62,96,77,51,30.11,29.98,0,0,0,0.00
2013-9-9,78,72,68,70,65,58,94,81,65,30.30,30.11,0,0,0,0.00
2013-9-10,91,78,67,76,71,66,97,81,58,30.29,30.20,0,0,0,0.00
2013-9-11,91,81,72,77,74,71,97,81,61,30.25,30.11,0,0,0,0.00
2013-9-12,91,79,71,76,72,66,97,80,54,30.11,29.84,1,0,1,0.00
2013-9-13,80,73,63,68,59,49,83,62,35,30.05,29.82,0,0,0,0.00
2013-9-14,70,61,53,55,51,46,91,70,46,30.29,30.05,0,0,0,0.00
2013-9-15,78,64,50,62,56,49,96,76,52,30.36,30.20,0,0,0,0.00
2013-9-16,72,65,60,65,61,56,96,86,62,30.34,30.18,0,0,0,0.00
2013-9-17,70,60,53,57,53,46,94,77,45,30.53,30.34,0,0,0,0.00
2013-9-18,71,59,46,57,51,45,97,78,48,30.47,30.30,0,0,0,0.00
2013-9-19,76,64,54,63,58,52,94,81,61,30.32,30.19,0,0,0,0.00
2013-9-20,77,68,60,68,64,58,96,86,70,30.20,30.06,0,0,0,0.00
2013-9-21,71,68,64,69,66,63,97,95,92,30.06,29.78,0,0,0,0.23
2013-9-22,75,66,59,63,58,52,98,78,47,30.06,29.84,0,0,0,0.10
2013-9-23,70,60,51,56,52,49,93,75,52,30.22,30.06,0,0,0,0.00
2013-9-24,74,62,54,60,56,51,96,81,56,30.23,30.06,0,0,0,0.00
2013-9-25,75,63,53,62,57,52,98,83,53,30.10,30.00,0,0,0,0.00
2013-9-26,76,66,59,59,57,50,93,75,44,30.19,30.02,0,0,0,0.00
2013-9-27,72,63,53,62,58,52,97,84,63,30.34,30.19,0,0,0,0.00
2013-9-28,67,63,58,60,58,56,96,86,71,30.41,30.32,0,0,0,0.00
2013-9-29,73,63,55,59,56,53,96,79,51,30.33,30.17,0,0,0,0.00
2013-9-30,77,64,52,62,57,51,97,80,54,30.22,30.09,0,0,0,0.00
2013-10-1,83,70,59,66,61,58,96,77,45,30.20,30.10,0,0,0,0.00
2013-10-2,84,72,59,66,62,57,94,74,43,30.22,30.12,2,0,2,0.00
2013-10-3,84,71,62,70,65,60,97,81,54,30.24,30.15,0,0,0,0.00
2013-10-4,88,74,62,70,66,61,100,79,47,30.21,30.13,0,0,0,0.00
2013-10-5,87,75,65,71,67,64,96,79,52,30.20,30.11,0,0,0,0.00
2013-10-6,86,75,64,72,67,63,97,77,49,30.13,30.00,26,1,26,0.00
2013-10-7,74,70,60,72,64,48,95,83,63,30.17,29.88,19,2,26,0.82
2013-10-8,67,59,51,53,50,46,93,72,48,30.39,30.17,19,3,19,0.11
2013-10-9,61,57,54,55,52,49,96,86,77,30.43,30.32,19,2,19,0.03
2013-10-10,60,57,54,60,56,52,97,96,91,30.32,30.10,12,0,12,0.20
2013-10-11,66,62,58,63,60,57,97,94,84,30.11,30.05,9,0,9,0.38
2013-10-12,65,63,61,63,62,60,98,97,93,30.26,30.08,0,0,1,0.21
2013-10-13,62,61,60,61,60,59,98,97,94,30.42,30.26,0,0,0,0.07
2013-10-14,69,62,58,60,58,57,98,90,70,30.44,30.33,10,1,10,0.04
2013-10-15,71,61,54,60,56,52,100,85,56,30.35,30.21,15,1,15,0.03
2013-10-16,73,65,60,64,61,58,95,86,69,30.21,30.04,13,1,13,0.02
2013-10-17,73,66,61,67,63,56,98,89,70,30.04,29.85,26,2,26,0.02
2013-10-18,69,61,53,56,48,42,88,64,41,30.15,29.95,19,3,20,0.01
2013-10-19,63,56,49,57,52,48,96,86,68,30.11,29.91,13,1,13,0.01
2013-10-20,65,56,45,50,41,36,86,60,37,30.23,30.00,13,2,13,0.01
2013-10-21,68,55,40,49,44,39,96,72,44,30.29,30.08,17,3,17,0.00
2013-10-22,71,60,50,53,49,46,93,68,47,30.08,29.91,27,3,27,0.01
2013-10-23,60,52,46,53,43,35,95,75,52,30.07,29.79,22,4,22,0.01
2013-10-24,54,49,43,37,34,29,73,56,44,30.30,30.07,29,5,29,0.00
2013-10-25,57,47,39,35,30,26,72,54,31,30.47,30.28,18,3,18,0.00
2013-10-26,58,46,32,36,32,29,93,60,35,30.46,30.09,25,5,25,0.11
2013-10-27,64,53,41,44,40,36,87,64,42,30.26,30.10,18,2,18,0.05
2013-10-28,68,53,40,48,43,39,94,73,43,30.39,30.26,10,1,10,0.01
2013-10-29,67,56,47,51,48,45,92,74,51,30.51,30.39,10,1,10,0.00
2013-10-30,70,60,53,60,55,49,93,83,68,30.44,30.23,11,1,13,0.00
2013-10-31,71,64,56,62,59,55,98,85,70,30.28,29.88,23,4,28,0.00
2013-11-1,78,70,62,65,62,54,94,75,44,29.89,29.70,34,9,34,0.00
2013-11-2,70,62,54,60,46,36,96,62,32,30.03,29.75,25,5,25,0.00
2013-11-3,60,53,41,41,35,26,78,53,28,30.54,30.03,23,4,23,0.00
2013-11-4,49,42,36,34,29,26,80,61,42,30.75,30.53,15,2,15,0.00
2013-11-5,55,47,37,46,37,30,86,68,53,30.74,30.59,7,0,7,0.00
2013-11-6,69,59,50,55,51,46,91,77,57,30.59,30.19,16,2,16,0.00
2013-11-7,66,59,48,60,48,29,90,68,42,30.22,29.99,25,7,29,0.00
2013-11-8,55,48,38,31,28,24,71,46,30,30.45,30.21,27,5,27,0.00
2013-11-9,58,46,31,35,31,28,89,58,34,30.49,30.20,23,6,23,0.00
2013-11-10,69,55,45,39,31,23,62,43,18,30.38,30.08,30,7,30,0.00
2013-11-11,62,52,39,34,30,27,73,46,28,30.44,30.15,21,5,21,0.00
2013-11-12,55,45,36,37,26,16,59,47,39,30.55,30.07,33,8,33,0.00
2013-11-13,47,38,32,23,20,16,70,48,29,30.64,30.53,23,3,23,0.00
2013-11-14,63,46,27,28,21,16,81,43,17,30.53,30.35,17,4,17,0.00
2013-11-15,64,51,36,48,30,22,93,48,25,30.40,30.28,15,2,17,0.18
2013-11-16,56,52,48,53,50,47,98,95,87,30.43,30.34,6,0,6,0.17
2013-11-17,64,58,54,62,57,53,98,96,90,30.35,29.89,21,0,21,0.01
2013-11-18,68,63,54,62,39,26,96,45,23,30.07,29.83,31,7,31,0.07
2013-11-19,54,47,40,31,29,27,66,49,37,30.49,30.06,23,4,23,0.00
2013-11-20,48,41,36,31,29,27,81,63,43,30.66,30.48,17,2,17,0.00
2013-11-21,50,45,38,42,37,29,83,75,68,30.68,30.51,6,0,6,0.00
2013-11-22,69,59,47,59,52,42,84,76,66,30.51,30.12,17,4,17,0.00
2013-11-23,64,52,39,57,32,14,82,49,20,30.32,30.12,27,9,27,0.00
2013-11-24,39,31,26,22,9,4,56,39,29,30.68,30.31,28,8,28,0.00
2013-11-25,39,32,23,17,13,9,71,46,32,30.70,30.47,16,3,16,0.00
2013-11-26,42,38,36,42,31,15,97,79,38,30.48,29.72,14,1,14,1.50
2013-11-27,46,41,32,45,34,16,98,77,47,30.23,29.61,28,2,28,0.73
2013-11-28,43,35,27,25,20,15,76,54,38,30.58,30.23,19,2,22,0.00
2013-11-29,46,36,27,29,25,22,85,64,44,30.84,30.57,13,1,13,0.00
2013-11-30,43,34,28,29,25,23,84,70,52,30.84,30.50,9,0,10,0.00
2013-12-1,58,41,26,35,29,23,92,67,33,30.50,30.13,12,1,12,0.00
2013-12-2,51,46,43,39,37,33,80,69,61,30.14,29.97,6,0,6,0.00
2013-12-3,60,48,40,43,40,36,90,74,52,30.11,29.99,9,0,9,0.00
2013-12-4,62,54,45,55,49,41,91,83,71,30.17,30.09,10,1,13,0.00
2013-12-5,68,62,57,64,60,54,97,91,85,30.17,30.03,15,0,15,0.00
2013-12-6,70,57,44,66,55,43,100,93,85,30.25,29.98,11,0,11,0.60
2013-12-7,46,42,35,43,37,30,100,83,65,30.64,30.21,18,2,18,0.30
2013-12-8,35,33,31,34,29,26,100,87,72,30.68,30.41,17,2,17,0.00
2013-12-9,42,38,35,40,37,34,97,96,92,30.44,30.15,9,0,9,0.72
2013-12-10,44,38,36,41,33,20,98,83,47,30.36,30.11,23,2,23,0.39
2013-12-11,47,40,34,26,22,17,69,48,36,30.53,30.36,19,4,19,0.00
2013-12-12,41,37,32,24,14,4,57,39,22,30.54,30.36,18,4,18,0.00
2013-12-13,50,41,32,25,17,11,56,38,27,30.43,30.33,28,5,28,0.00
2013-12-14,39,38,35,38,33,24,97,84,56,30.42,29.86,10,0,10,0.35
2013-12-15,51,44,39,42,34,27,100,70,49,30.10,29.77,26,6,26,0.01
2013-12-16,47,41,36,33,31,29,77,66,55,30.28,30.07,16,3,16,0.00
2013-12-17,56,41,32,41,34,28,90,77,49,30.25,30.01,28,2,28,0.00
2013-12-18,47,41,35,36,25,21,88,54,36,30.34,30.11,20,4,20,0.00
2013-12-19,66,50,33,32,28,24,77,47,25,30.32,30.22,21,4,21,0.00
2013-12-20,60,52,46,35,32,30,58,47,37,30.26,30.16,21,4,21,0.00
2013-12-27,54,42,32,26,23,20,73,48,30,30.56,30.45,9,3,17,0.00
2013-12-28,61,45,31,31,27,25,78,52,28,30.48,30.27,7,2,14,0.00
2013-12-29,56,49,43,50,43,31,97,82,47,30.25,29.71,13,3,32,1.46
2013-12-30,51,47,39,41,37,31,83,68,54,30.28,29.96,7,3,19,0.00
2013-12-31,48,41,33,32,26,18,89,59,34,30.44,30.26,21,5,37,0.00
2014-1-1,53,40,30,29,26,21,78,58,40,30.52,30.26,6,2,17,0.00
2014-1-2,41,36,32,36,31,28,95,81,65,30.24,29.74,2,0,9,0.07